TimeGMT,TemperatureF,Dew PointF,Humidity,Sea Level PressureIn,VisibilityMPH,Wind Direction,Wind SpeedMPH,Gust SpeedMPH,PrecipitationIn,Events,Conditions,WindDirDegrees,DateUTC
12:00 AM,44,42,90,30.35,12,ESE,8.9,,,,,120,2011-11-07 00:00:00
12:00 AM,44.6,42.8,93,30.33,-9999.0,ESE,9.2,-,N/A,,Clear,120,2011-11-07 00:00:00
12:30 AM,44.6,42.8,93,30.33,-9999.0,ESE,9.2,-,N/A,,Clear,120,2011-11-07 00:30:00
1:00 AM,42.8,41.0,93,30.33,-9999.0,ESE,8.1,-,N/A,,Clear,120,2011-11-07 01:00:00
1:30 AM,42.8,41.0,93,30.33,-9999.0,ESE,8.1,-,N/A,,Clear,120,2011-11-07 01:30:00
2:00 AM,42.8,41.0,93,30.33,-9999.0,ESE,8.1,-,N/A,,Clear,120,2011-11-07 02:00:00
2:30 AM,41.0,41.0,100,30.33,-9999.0,ESE,6.9,-,N/A,,Clear,120,2011-11-07 02:30:00
3:00 AM,42.8,41.0,93,30.30,-9999.0,SE,6.9,-,N/A,,Clear,130,2011-11-07 03:00:00
3:30 AM,42.8,41.0,93,30.30,-9999.0,ESE,9.2,-,N/A,,Clear,120,2011-11-07 03:30:00
4:00 AM,42.8,41.0,93,30.30,-9999.0,ESE,10.4,-,N/A,,Clear,120,2011-11-07 04:00:00
4:30 AM,41.0,41.0,100,30.27,-9999.0,ESE,9.2,-,N/A,,Clear,120,2011-11-07 04:30:00
5:00 AM,42.8,41.0,93,30.27,-9999.0,ESE,10.4,-,N/A,,Clear,120,2011-11-07 05:00:00
5:30 AM,41.0,39.2,93,30.30,-9999.0,ESE,8.1,-,N/A,,Clear,110,2011-11-07 05:30:00
6:00 AM,40,39,95,30.30,7,ESE,8.9,,,,Mist,110,2011-11-07 06:00:00
6:00 AM,39.2,39.2,100,30.27,-9999.0,ESE,8.1,-,N/A,,Clear,110,2011-11-07 06:00:00
6:30 AM,39.2,39.2,100,30.27,5.6,ESE,10.4,-,N/A,,Partly Cloudy,120,2011-11-07 06:30:00
7:00 AM,39.2,39.2,100,30.27,2.5,ESE,10.4,-,N/A,,Mostly Cloudy,120,2011-11-07 07:00:00
7:30 AM,39.2,39.2,100,30.27,2.5,East,8.1,-,N/A,,Partly Cloudy,100,2011-11-07 07:30:00
8:00 AM,39.2,37.4,93,30.27,2.5,East,8.1,-,N/A,,Scattered Clouds,100,2011-11-07 08:00:00
8:30 AM,39.2,39.2,100,30.27,0.4,East,9.2,-,N/A,Fog,Fog,100,2011-11-07 08:30:00
9:00 AM,39.2,39.2,100,30.27,0.2,ESE,9.2,-,N/A,Fog,Fog,110,2011-11-07 09:00:00
9:30 AM,39.2,39.2,100,30.27,0.2,ESE,10.4,-,N/A,Fog,Fog,110,2011-11-07 09:30:00
10:00 AM,41.0,41.0,100,30.24,4.3,ESE,9.2,-,N/A,,Partly Cloudy,110,2011-11-07 10:00:00
10:30 AM,42.8,41.0,93,30.24,6.2,ESE,11.5,-,N/A,,Partly Cloudy,110,2011-11-07 10:30:00
11:00 AM,44.6,41.0,87,30.24,6.2,ESE,10.4,-,N/A,,Partly Cloudy,110,2011-11-07 11:00:00
11:30 AM,46.4,42.8,87,30.24,6.2,ESE,9.2,-,N/A,,Partly Cloudy,110,2011-11-07 11:30:00
12:00 PM,48,44,81,30.23,19,ESE,8.9,,,,Scattered Clouds,110,2011-11-07 12:00:00
12:00 PM,48.2,44.6,87,30.21,6.2,ESE,9.2,-,N/A,,Partly Cloudy,110,2011-11-07 12:00:00
12:30 PM,50.0,42.8,76,30.21,6.2,SE,10.4,-,N/A,,Partly Cloudy,130,2011-11-07 12:30:00
1:00 PM,51.8,42.8,71,30.18,6.2,SE,9.2,-,N/A,,Partly Cloudy,140,2011-11-07 13:00:00
1:30 PM,51.8,42.8,71,30.15,6.2,SE,13.8,-,N/A,,Partly Cloudy,140,2011-11-07 13:30:00
2:00 PM,51.8,39.2,62,30.15,6.2,ESE,9.2,-,N/A,,Partly Cloudy,120,2011-11-07 14:00:00
2:30 PM,51.8,41.0,67,30.12,6.2,ESE,9.2,-,N/A,,Partly Cloudy,110,2011-11-07 14:30:00
3:00 PM,51.8,41.0,67,30.12,6.2,SE,11.5,-,N/A,,Partly Cloudy,140,2011-11-07 15:00:00
3:30 PM,51.8,41.0,67,30.12,6.2,SE,12.7,-,N/A,,Partly Cloudy,140,2011-11-07 15:30:00
4:00 PM,50.0,41.0,71,30.09,6.2,SE,11.5,-,N/A,,Partly Cloudy,140,2011-11-07 16:00:00
4:30 PM,50.0,39.2,66,30.09,6.2,SE,9.2,-,N/A,,Partly Cloudy,140,2011-11-07 16:30:00
5:00 PM,48.2,39.2,71,30.09,6.2,SE,10.4,-,N/A,,Partly Cloudy,130,2011-11-07 17:00:00
5:30 PM,48.2,39.2,71,30.06,6.2,SE,10.4,-,N/A,,Partly Cloudy,130,2011-11-07 17:30:00
6:00 PM,47,39,65,30.08,16,SE,11.2,,,,Scattered Clouds,130,2011-11-07 18:00:00
6:00 PM,46.4,39.2,76,30.06,6.2,SE,11.5,-,N/A,,Partly Cloudy,130,2011-11-07 18:00:00
6:30 PM,44.6,39.2,81,30.06,6.2,ESE,9.2,-,N/A,,Partly Cloudy,120,2011-11-07 18:30:00
7:00 PM,44.6,39.2,81,30.06,6.2,East,6.9,-,N/A,,Partly Cloudy,100,2011-11-07 19:00:00
7:30 PM,44.6,39.2,81,30.04,6.2,ESE,9.2,-,N/A,,Partly Cloudy,120,2011-11-07 19:30:00
8:00 PM,44.6,39.2,81,30.04,6.2,ESE,8.1,-,N/A,,Mostly Cloudy,120,2011-11-07 20:00:00
8:30 PM,44.6,39.2,81,30.01,6.2,ESE,8.1,-,N/A,,Mostly Cloudy,110,2011-11-07 20:30:00
9:00 PM,44.6,39.2,81,30.01,6.2,ESE,6.9,-,N/A,,Mostly Cloudy,120,2011-11-07 21:00:00
9:30 PM,44.6,41.0,87,30.01,6.2,East,5.8,-,N/A,,Mostly Cloudy,90,2011-11-07 21:30:00
10:00 PM,44.6,41.0,87,29.98,6.2,East,6.9,-,N/A,,Scattered Clouds,100,2011-11-07 22:00:00
10:30 PM,44.6,41.0,87,29.98,6.2,ENE,5.8,-,N/A,,Mostly Cloudy,60,2011-11-07 22:30:00
11:00 PM,44.6,42.8,93,29.98,6.2,East,5.8,-,N/A,,Mostly Cloudy,90,2011-11-07 23:00:00
11:30 PM,46.4,42.8,87,29.95,6.2,ESE,6.9,-,N/A,,Mostly Cloudy,110,2011-11-07 23:30:00